New Delhi, India

7:14 AM IST on August 18, 2017 (GMT +0530)
Indira Gandhi International

Weather History for VIDP - August, 2014

Change the Weather History Date:

Tuesday, August 12, 2014

  Actual Average Record
Temperature  
Mean Temperature 90 °F -  
Max Temperature 96 °F 91 °F 98 °F (2001)
Min Temperature 82 °F 78 °F 77 °F (2011)
Cooling Degree Days 25    
Growing Degree Days 40 (Base 50)    
Moisture  
Dew Point 78 °F    
Average Humidity 71    
Maximum Humidity 89    
Minimum Humidity 56    
Precipitation  
Precipitation 0.00 in - - ()
Sea Level Pressure  
Sea Level Pressure 29.55 in    
Wind  
Wind Speed 4 mph ()    
Max Wind Speed 12 mph    
Max Gust Speed -    
Visibility 2.5 miles    
Events Rain , Thunderstorm    
Averages and records for this station are not official NWS values.
T = Trace of Precipitation, MM = Missing Value Source: Averaged Metar Reports

Daily Weather History Graph

Daily Weather History Graph

Search for Another Location

Airport or City:

Trip Planner

Search our weather history database for the weather conditions in past years. The results will help you decide how hot, cold, wet, or windy it might be!

Date:

Astronomy

Aug. 12, 2014 Rise Set
Actual Time 5:48 AM IST 7:03 PM IST
Civil Twilight 5:24 AM IST 7:28 PM IST
Nautical Twilight 4:54 AM IST 7:58 PM IST
Astronomical Twilight 4:23 AM IST 8:28 PM IST
Moon 8:08 PM IST (8/12) 7:20 AM IST (8/12)
Length of Visible Light 14h 04m
Length of Day
13h 14m
Waning Gibbous, 97% of the Moon is Illuminated
Aug 12
Waning Gibbous
Aug 17
Last Quarter
Aug 25
New
Sep 2
First Quarter
Sep 9
Full

Hourly Weather History & Observations

Time (IST) Temp. Heat Index Dew Point Humidity Pressure Visibility Wind Dir Wind Speed Gust Speed Precip Events Conditions
12:00 AM 86.0 °F 104.7 °F 82.4 °F 89% 29.56 in 1.6 mi SSE 3.5 mph - N/A   Mostly Cloudy
12:30 AM 86.0 °F 104.7 °F 82.4 °F 89% 29.56 in 1.6 mi Calm Calm - N/A   Mostly Cloudy
1:00 AM 86.0 °F 104.7 °F 82.4 °F 89% 29.56 in 1.6 mi Calm Calm - N/A   Mostly Cloudy
1:30 AM 86.0 °F 104.7 °F 82.4 °F 89% 29.56 in 1.6 mi Calm Calm - N/A   Mostly Cloudy
2:00 AM 86.0 °F 104.7 °F 82.4 °F 89% 29.56 in 1.6 mi Calm Calm - N/A   Mostly Cloudy
2:30 AM 86.0 °F 104.7 °F 82.4 °F 89% 29.53 in 1.6 mi Calm Calm - N/A   Mostly Cloudy
3:00 AM 86.0 °F 104.7 °F 82.4 °F 89% 29.53 in 1.6 mi Calm Calm - N/A   Mostly Cloudy
3:30 AM 86.0 °F 101.9 °F 80.6 °F 84% 29.53 in 1.7 mi West 4.6 mph - N/A   Mostly Cloudy
4:00 AM 86.0 °F 101.9 °F 80.6 °F 84% 29.53 in 1.7 mi West 4.6 mph - N/A   Mostly Cloudy
4:30 AM 86.0 °F 101.9 °F 80.6 °F 84% 29.53 in 1.7 mi WNW 4.6 mph - N/A   Mostly Cloudy
5:00 AM 84.2 °F 94.1 °F 77.0 °F 79% 29.53 in 1.7 mi West 4.6 mph - N/A   Mostly Cloudy
5:30 AM 84.2 °F 96.1 °F 78.8 °F 84% 29.56 in 1.7 mi West 4.6 mph - N/A   Mostly Cloudy
6:00 AM 84.2 °F 90.9 °F 73.4 °F 70% 29.56 in 1.7 mi West 4.6 mph - N/A   Haze
6:30 AM 84.2 °F 90.9 °F 73.4 °F 70% 29.56 in 1.7 mi West 4.6 mph - N/A   Haze
7:00 AM 84.2 °F 90.9 °F 73.4 °F 70% 29.59 in 1.7 mi West 4.6 mph - N/A   Haze
7:30 AM 84.2 °F 90.9 °F 73.4 °F 70% 29.59 in 1.7 mi West 6.9 mph - N/A   Haze
8:30 AM 86.0 °F 93.4 °F 73.4 °F 66% 29.59 in - West 8.1 mph - N/A   Haze
9:00 AM 87.8 °F 93.8 °F 71.6 °F 58% 29.59 in 2.2 mi West 6.9 mph - N/A   Haze
9:30 AM 87.8 °F 97.6 °F 75.2 °F 66% 29.59 in 2.5 mi West 9.2 mph - N/A   Haze
10:00 AM 87.8 °F 97.6 °F 75.2 °F 66% 29.59 in 2.8 mi West 10.4 mph - N/A   Haze
11:00 AM 89.6 °F 104.7 °F 78.8 °F 70% 29.59 in 3.1 mi WNW 8.1 mph - N/A   Haze
11:30 AM 91.4 °F 107.2 °F 78.8 °F 66% 29.59 in 3.7 mi WNW 9.2 mph - N/A   Partly Cloudy
12:00 PM 91.4 °F 107.2 °F 78.8 °F 66% 29.59 in 3.7 mi WNW 9.2 mph - N/A   Partly Cloudy
12:30 PM 91.4 °F 107.2 °F 78.8 °F 66% 29.56 in 3.7 mi WNW 9.2 mph - N/A   Partly Cloudy
1:00 PM 93.2 °F 110.2 °F 78.8 °F 63% 29.56 in 3.7 mi WNW 9.2 mph - N/A   Partly Cloudy
1:30 PM 95.0 °F 112.2 °F 78.8 °F 59% 29.56 in 3.7 mi West 9.2 mph - N/A   Scattered Clouds
2:00 PM 95.0 °F 112.2 °F 78.8 °F 59% 29.53 in 3.7 mi West 9.2 mph - N/A   Scattered Clouds
2:30 PM 95.0 °F 112.2 °F 78.8 °F 59% 29.53 in 3.7 mi WNW 8.1 mph - N/A   Scattered Clouds
3:00 PM 96.8 °F 114.8 °F 78.8 °F 56% 29.53 in 3.7 mi West 8.1 mph - N/A   Scattered Clouds
3:30 PM 95.0 °F 112.2 °F 78.8 °F 59% 29.50 in 3.7 mi WNW 9.2 mph - N/A   Scattered Clouds
4:00 PM 95.0 °F 109.7 °F 77.0 °F 56% 29.50 in 3.7 mi WNW 9.2 mph - N/A   Scattered Clouds
4:30 PM 95.0 °F 109.7 °F 77.0 °F 56% 29.50 in 3.7 mi WNW 9.2 mph - N/A   Mostly Cloudy
5:00 PM 95.0 °F 109.7 °F 77.0 °F 56% 29.47 in 3.7 mi WNW 8.1 mph - N/A   Mostly Cloudy
6:00 PM 93.2 °F 107.2 °F 77.0 °F 59% 29.50 in 2.8 mi West 8.1 mph - N/A   Haze
6:30 PM 93.2 °F 107.2 °F 77.0 °F 59% 29.50 in 2.5 mi WNW 8.1 mph - N/A   Haze
7:00 PM 91.4 °F 107.2 °F 78.8 °F 66% 29.50 in 2.2 mi West 6.9 mph - N/A   Haze
7:30 PM 91.4 °F 107.2 °F 78.8 °F 66% 29.50 in 2.2 mi West 6.9 mph - N/A   Haze
8:00 PM 91.4 °F 107.2 °F 78.8 °F 66% 29.53 in 2.2 mi West 8.1 mph - N/A   Haze
9:00 PM 87.8 °F 99.7 °F 77.0 °F 70% 29.53 in 2.2 mi WSW 11.5 mph - N/A Rain , Thunderstorm Light Thunderstorms and Rain
11:00 PM 84.2 °F 94.1 °F 77.0 °F 79% 29.56 in 2.2 mi WNW 4.6 mph - N/A   Mostly Cloudy
11:30 PM 82.4 °F 89.5 °F 75.2 °F 79% 29.56 in 2.2 mi West 4.6 mph - N/A   Mostly Cloudy